Probability
6 6 10 6 6 10 6 10 10 6 6 10 3 6 6 6 3 6 6 6 10 19 10 10 10 6 6 6 3 3 6 6 6 10 6 6 6 10 10 10 13 16 13
10 13 13 10 10 13 13 13 13 13 10 13 3 0 3 6 3 0 3 10 16 13 23 10 13 6 6 6 10 6 13 10 10 10 6 6 10 3 3 10 13 16 16
10 16 10 10 10 13 13 19 16 13 10 10 6 10 10 10 10 10 10 13 16 13 16 13 10 3 6 13 13 16 16 13 10 10 10 13 10 10 6 10 13 10 19
10 10 6 10 6 13 19 19 16 6 6 10 10 13 13 16 10 10 13 13 19 23 19 16 10 6 6 10 16 16 13 10 13 13 13 13 16 10 6 6 10 10 13
10 6 10 13 16 16 16 13 16 19 10 13 10 13 10 10 13 13 10 10 10 10 19 16 10 10 10 13 16 16 10 10 13 13 13 13 6 6 6 10 13 10 10
6 6 6 6 10 13 13 13 13 10 10 10 10 13 13 13 10 10 6 3 3 6 10 13 13 10 13 16 16 13 16 10 10 16 16 16 13 13 6 10 10 10 16
6 3 6 6 3 10 10 6 6 6 10 13 13 13 10 10 6 6 6 3 13 10 6 10 10 10 13 10 13 16 16 16 16 19 16 16 16 13 10 10 13 13 13
3 3 3 6 3 6 10 10 3 10 10 10 6 10 13 10 6 6 6 6 13 10 10 6 10 10 10 13 10 13 10 13 23 23 16 13 13 13 13 13 19 19 16
3 3 0 3 6 6 10 10 3 6 10 13 13 10 13 10 10 6 6 6 13 13 16 16 13 13 16 10 10 10 10 16 23 19 23 16 13 13 16 19 19 23 19
6 3 0 0 0 3 10 10 10 10 10 10 10 13 10 6 6 6 6 10 10 10 19 16 16 13 13 16 16 13 13 16 19 16 23 19 16 19 23 23 23 19 19
3 0 0 0 0 6 6 10 13 10 13 10 6 10 6 6 6 13 16 13 13 10 13 16 19 16 16 13 13 13 16 16 16 16 16 23 29 26 26 26 23 19 13
0 0 0 3 3 3 6 6 10 13 16 16 13 6 10 6 6 19 16 13 13 10 10 10 19 19 19 19 16 13 16 19 23 23 23 19 26 29 23 23 23 23 19
3 0 0 3 3 0 0 6 6 16 13 10 13 6 10 6 10 19 16 13 13 10 10 13 16 16 19 19 23 19 19 19 19 26 19 16 16 23 23 19 19 19 19
0 0 0 0 3 6 3 10 6 13 16 10 10 10 10 10 10 13 13 13 13 10 10 13 16 19 13 16 19 16 13 16 16 16 16 16 16 16 16 16 16 19 16
3 0 3 3 6 6 6 6 10 13 3 6 6 10 6 3 10 10 10 10 10 10 10 13 13 13 13 10 10 13 13 10 13 13 13 13 13 13 13 16 19 19 16
6 6 6 6 6 3 3 6 10 6 3 3 6 6 3 6 3 6 3 6 13 16 10 13 13 10 10 6 6 6 10 13 13 10 10 10 10 10 3 3 0 6 10
6 10 6 6 6 6 3 3 3 3 3 6 10 3 3 3 6 6 3 3 3 6 13 13 13 13 10 3 0 0 3 13 10 10 10 6 6 6 10 6 3 0 0
3 3 6 6 6 3 3 0 3 3 3 3 6 6 13 10 10 6 6 6 6 6 6 10 13 13 13 3 0 0 0 6 10 10 6 6 10 6 13 13 6 6 3
3 3 3 3 3 0 3 3 3 3 6 6 6 10 10 6 10 13 13 13 13 10 6 10 13 13 13 3 3 0 3 3 6 10 10 10 6 6 3 3 6 6 10
3 3 6 6 6 3 3 3 3 6 6 6 3 6 6 6 6 10 10 6 6 6 6 10 10 13 13 6 3 3 6 10 10 10 13 6 3 3 0 3 3 3 6
3 10 6 6 3 3 3 6 6 6 10 10 3 6 6 6 6 10 10 3 3 10 6 10 16 16 16 13 6 3 6 10 10 10 13 13 6 0 0 0 0 3 0
6 10 6 6 3 3 3 6 6 6 6 3 3 6 10 10 10 10 10 6 10 10 13 13 13 13 13 10 6 3 3 3 6 6 10 10 6 3 0 0 0 0 0
10 6 10 6 3 6 6 10 10 10 3 3 6 10 10 10 10 10 13 10 13 13 16 13 13 10 10 10 3 3 3 3 3 6 6 3 3 0 0 0 0 0 0
10 6 6 6 6 10 10 10 6 3 3 3 3 6 13 13 13 10 6 10 10 10 13 13 13 13 10 10 10 3 3 3 0 0 0 3 3 3 0 0 0 0 0
6 6 6 6 6 6 13 13 6 6 6 6 10 10 10 10 13 6 10 10 10 10 10 10 13 13 13 6 3 6 6 6 6 3 3 3 3 3 3 0 0 0 0
3 3 6 6 10 10 10 0 3 6 6 6 6 6 6 6 6 3 3 0 3 0 3 3 10 10 6 3 3 3 3 3 0 3 3 3 3 0 0 0 0 0 0
Height
5905 5904 5904 5903 5903 5902 5902 5901 5901 5900 5900 5899 5899 5899 5898 5898 5897 5897 5897 5896 5896 5895 5894 5894 5893 5893 5892 5891 5890 5889 5888 5887 5885 5884 5883 5881 5880 5879 5877 5876 5874 5873 5872
5906 5905 5904 5903 5903 5903 5902 5901 5901 5901 5900 5900 5899 5899 5898 5898 5897 5897 5896 5896 5895 5894 5894 5893 5893 5892 5891 5890 5889 5888 5886 5885 5884 5882 5881 5879 5878 5876 5875 5874 5872 5871 5869
5906 5906 5905 5904 5903 5903 5902 5902 5901 5901 5900 5900 5899 5898 5898 5897 5897 5896 5896 5895 5894 5894 5893 5892 5891 5891 5890 5889 5888 5886 5885 5883 5881 5880 5879 5877 5876 5874 5873 5871 5869 5868 5866
5907 5906 5905 5904 5904 5903 5902 5901 5901 5900 5900 5899 5899 5898 5897 5896 5896 5895 5895 5894 5894 5893 5892 5891 5890 5889 5888 5887 5885 5884 5882 5881 5879 5877 5876 5874 5873 5871 5870 5868 5866 5865 5863
5907 5906 5905 5904 5903 5902 5901 5901 5900 5899 5899 5898 5898 5897 5896 5895 5894 5894 5893 5893 5892 5891 5890 5889 5888 5887 5886 5884 5883 5882 5880 5878 5877 5875 5873 5871 5870 5868 5866 5865 5864 5862 5860
5907 5906 5904 5903 5902 5901 5900 5899 5899 5898 5897 5897 5896 5895 5894 5894 5893 5892 5892 5891 5890 5889 5888 5887 5886 5885 5883 5882 5880 5879 5877 5875 5874 5872 5870 5868 5867 5865 5863 5862 5860 5859 5857
5906 5905 5903 5902 5901 5900 5898 5898 5897 5897 5896 5895 5894 5894 5893 5892 5891 5890 5889 5889 5888 5887 5886 5885 5883 5882 5881 5879 5878 5876 5874 5872 5870 5868 5867 5865 5863 5861 5860 5858 5856 5855 5853
5904 5903 5902 5900 5899 5898 5897 5896 5896 5895 5894 5893 5893 5892 5890 5889 5888 5888 5887 5886 5885 5884 5883 5881 5880 5879 5877 5876 5874 5872 5870 5868 5866 5864 5863 5861 5859 5857 5856 5854 5852 5851 5850
5903 5901 5900 5898 5897 5896 5895 5894 5893 5892 5892 5891 5890 5889 5888 5887 5886 5885 5884 5882 5881 5880 5879 5878 5876 5875 5873 5872 5870 5868 5866 5864 5862 5860 5858 5856 5854 5852 5851 5849 5848 5847 5845
5900 5899 5897 5896 5894 5893 5892 5891 5889 5889 5888 5887 5887 5886 5884 5883 5882 5881 5880 5879 5877 5876 5875 5873 5872 5870 5869 5867 5865 5864 5861 5859 5858 5855 5853 5851 5849 5847 5845 5844 5842 5841 5839
5897 5895 5894 5892 5892 5890 5889 5888 5886 5885 5884 5883 5882 5881 5880 5879 5878 5877 5876 5875 5873 5872 5870 5868 5867 5865 5863 5862 5860 5858 5856 5854 5852 5850 5848 5846 5843 5841 5840 5838 5836 5835 5833
5893 5892 5891 5890 5888 5887 5886 5885 5883 5882 5881 5879 5878 5877 5876 5875 5874 5873 5871 5870 5869 5867 5865 5863 5862 5860 5858 5856 5854 5852 5850 5848 5846 5844 5842 5840 5838 5836 5834 5832 5830 5828 5826
5890 5889 5887 5886 5884 5883 5882 5881 5879 5877 5876 5875 5874 5872 5871 5870 5869 5867 5866 5865 5863 5861 5860 5858 5856 5854 5852 5851 5848 5846 5844 5842 5840 5838 5836 5834 5832 5830 5827 5825 5823 5821 5819
5885 5884 5883 5881 5880 5878 5877 5875 5874 5873 5871 5870 5868 5867 5865 5864 5863 5861 5860 5858 5857 5855 5854 5852 5850 5848 5847 5845 5842 5840 5838 5835 5833 5831 5829 5827 5825 5823 5821 5818 5816 5814 5812
5879 5878 5877 5876 5874 5873 5871 5870 5869 5867 5866 5865 5863 5861 5860 5858 5857 5855 5854 5852 5851 5849 5847 5845 5844 5842 5840 5838 5836 5833 5831 5828 5826 5824 5822 5819 5817 5815 5813 5811 5809 5807 5804
5874 5873 5871 5870 5868 5867 5865 5864 5863 5861 5860 5859 5857 5855 5854 5852 5850 5848 5847 5845 5844 5842 5840 5839 5837 5835 5833 5830 5828 5826 5823 5821 5819 5816 5814 5811 5809 5807 5805 5802 5800 5798 5796
5867 5865 5864 5863 5861 5860 5859 5858 5856 5854 5853 5852 5850 5848 5846 5845 5843 5841 5840 5838 5837 5835 5833 5832 5830 5827 5825 5823 5820 5818 5815 5813 5811 5808 5806 5804 5801 5799 5796 5794 5792 5789 5787
5859 5858 5856 5855 5854 5853 5851 5850 5849 5847 5846 5844 5843 5841 5839 5837 5836 5834 5833 5831 5829 5828 5826 5824 5822 5820 5817 5815 5812 5810 5807 5805 5802 5800 5798 5795 5792 5789 5787 5785 5783 5780 5778
5852 5850 5849 5848 5846 5845 5844 5842 5841 5839 5838 5836 5835 5833 5831 5830 5828 5826 5824 5823 5821 5820 5818 5816 5814 5811 5809 5806 5803 5801 5798 5795 5793 5790 5788 5786 5783 5780 5778 5776 5773 5771 5768
5844 5843 5841 5840 5838 5837 5835 5834 5833 5831 5830 5828 5827 5825 5823 5822 5820 5818 5816 5814 5813 5811 5809 5807 5805 5803 5800 5797 5795 5792 5789 5787 5784 5781 5778 5776 5774 5771 5768 5766 5764 5762 5759
5837 5835 5834 5832 5830 5829 5828 5826 5824 5823 5821 5820 5818 5816 5814 5812 5811 5809 5807 5805 5804 5802 5800 5798 5796 5794 5791 5789 5786 5783 5780 5777 5775 5772 5769 5766 5763 5761 5758 5756 5754 5752 5750
5829 5827 5826 5824 5822 5820 5819 5818 5816 5814 5812 5811 5809 5807 5805 5803 5801 5800 5798 5796 5794 5793 5791 5788 5786 5784 5781 5779 5776 5773 5770 5768 5765 5762 5759 5756 5753 5751 5748 5746 5744 5742 5740
5820 5819 5817 5816 5814 5811 5809 5808 5806 5804 5802 5801 5799 5797 5795 5793 5792 5790 5788 5786 5784 5783 5781 5779 5776 5774 5771 5768 5766 5763 5760 5757 5755 5751 5748 5746 5743 5741 5738 5736 5734 5732 5730
5812 5810 5809 5807 5804 5802 5800 5799 5797 5794 5792 5791 5789 5787 5785 5783 5782 5780 5779 5777 5775 5772 5770 5768 5766 5763 5761 5758 5755 5752 5750 5747 5744 5742 5738 5735 5733 5731 5729 5726 5724 5722 5720
5803 5801 5799 5797 5795 5793 5792 5789 5787 5785 5783 5781 5779 5778 5776 5773 5772 5771 5769 5767 5764 5762 5760 5758 5755 5753 5750 5748 5745 5742 5740 5736 5733 5731 5728 5725 5723 5721 5718 5716 5714 5712 5709
5794 5793 5791 5789 5786 5784 5783 5781 5778 5776 5774 5772 5770 5768 5767 5764 5763 5761 5759 5757 5755 5752 5750 5747 5745 5742 5739 5736 5734 5732 5729 5726 5723 5720 5718 5715 5713 5711 5708 5706 5704 5701 5699
Wind_Speed
6 6 5 4 4 4 4 4 4 4 3 3 3 3 3 3 3 2 2 2 2 3 3 4 4 5 6 7 8 8 9 9 9 10 10 10 10 10 10 11 12 12 12
6 6 5 4 4 4 4 4 4 4 3 2 3 3 4 4 3 2 3 3 3 3 3 4 4 6 7 8 8 9 10 10 10 11 11 12 11 11 11 11 12 12 12
5 5 4 4 4 3 2 2 2 3 2 2 2 3 4 4 4 3 4 4 4 4 4 5 5 6 8 9 9 10 11 11 11 12 12 11 11 12 13 13 13 13 13
4 3 3 3 3 2 2 2 2 2 3 3 3 4 4 4 4 4 5 5 5 5 6 6 7 8 9 10 11 11 12 12 13 13 13 13 13 14 14 14 13 13 13
3 3 3 4 4 4 3 4 4 4 4 5 5 6 5 5 5 6 6 6 6 7 8 8 9 10 10 11 12 13 13 14 14 14 14 14 14 15 15 14 14 14 14
5 5 5 6 5 5 4 4 4 4 5 6 7 7 7 7 7 7 7 7 8 9 10 11 11 12 12 13 14 14 15 15 16 16 16 16 16 16 16 15 15 15 15
7 7 7 7 6 6 6 5 5 6 7 8 8 8 9 8 8 9 9 9 10 11 11 12 13 14 14 15 15 16 16 17 17 17 17 17 17 17 17 16 16 16 16
7 8 9 9 9 9 8 8 8 8 9 9 10 10 10 10 10 10 11 12 12 12 13 14 15 16 16 17 17 18 18 18 18 18 18 18 18 18 18 18 17 17 17
9 9 10 11 11 11 10 10 10 10 10 11 11 12 13 13 13 13 14 14 15 15 15 16 17 18 18 18 19 20 20 20 19 19 20 20 21 20 20 19 18 18 18
12 12 13 14 14 13 12 12 12 13 13 13 13 14 14 14 15 15 16 17 16 16 17 18 18 19 19 20 20 21 21 21 21 21 22 22 22 22 21 20 20 20 20
15 15 15 16 16 15 15 14 15 15 15 15 15 15 15 15 15 16 16 17 17 17 18 19 20 21 21 21 21 21 22 22 22 22 22 22 22 22 22 22 22 22 22
17 17 17 17 18 17 17 18 18 18 17 16 16 16 17 17 17 17 17 18 18 19 19 20 21 22 22 22 22 22 22 23 23 23 23 23 23 23 23 23 23 23 23
19 19 20 20 20 20 20 20 21 20 19 19 19 19 19 19 19 19 20 20 21 21 21 21 22 22 22 22 23 23 24 24 24 25 24 24 24 24 24 24 25 25 24
21 21 21 22 23 22 22 22 22 22 22 21 21 21 21 21 22 21 22 22 22 22 22 23 24 24 24 24 25 25 26 26 26 26 25 25 26 26 26 26 26 26 26
22 22 22 23 24 24 24 24 23 24 24 24 23 23 23 23 24 24 23 23 23 23 24 24 25 25 25 26 27 27 28 28 27 26 26 27 27 27 27 27 27 27 28
24 25 26 25 26 26 26 26 25 26 26 26 25 25 25 25 25 25 25 25 25 24 25 26 26 26 27 28 28 29 29 28 28 28 29 29 29 29 29 29 29 29 29
26 26 27 26 27 28 28 28 27 28 28 28 28 28 28 27 27 27 27 27 27 26 26 27 27 28 28 29 29 30 30 30 30 30 30 30 31 31 31 31 31 31 30
26 27 27 27 28 28 29 29 30 29 29 29 29 29 29 29 29 29 28 28 28 28 27 28 28 29 30 30 31 32 32 31 31 31 31 31 32 32 32 32 32 31 30
28 28 29 29 29 30 30 31 31 30 30 30 30 30 30 31 31 31 30 30 29 30 29 29 30 30 31 32 32 32 32 32 32 32 32 32 32 33 33 33 32 31 31
28 28 29 29 30 30 31 30 30 30 30 31 31 31 32 32 32 32 32 31 31 31 31 32 32 32 32 33 33 34 33 33 33 33 32 32 33 33 33 32 32 31 31
28 29 28 28 29 30 30 30 30 30 30 31 32 32 33 33 33 33 33 32 32 32 33 33 33 34 34 34 34 35 35 34 34 34 33 33 34 34 33 33 32 32 32
29 29 30 30 30 30 31 31 30 30 31 31 32 32 33 32 32 33 34 34 33 34 33 34 34 34 35 35 35 35 35 35 35 35 35 34 34 34 33 33 33 33 33
30 30 31 31 31 30 30 30 30 31 31 32 32 33 33 32 33 34 33 34 34 34 35 35 35 35 35 35 35 35 35 35 35 35 35 35 34 33 32 32 33 33 33
31 32 31 31 30 30 30 30 31 32 32 32 32 33 33 33 34 33 33 33 34 34 35 35 35 35 35 35 35 35 36 36 37 36 35 34 33 33 34 34 34 34 34
31 32 31 30 30 30 30 30 30 31 32 32 33 33 33 33 33 32 32 33 34 34 35 36 36 35 34 35 35 36 37 37 35 35 34 34 34 34 34 34 34 34 34
31 31 30 29 29 30 29 29 29 30 31 32 32 33 32 32 32 32 32 33 34 35 35 35 35 34 34 35 36 36 36 36 35 35 35 34 34 34 34 34 33 33 33
Wind_Direction
56 62 65 64 65 67 68 65 62 59 46 31 26 26 17 12 6 3 11 4 353 343 329 327 333 333 331 330 328 326 326 324 320 317 316 316 314 311 308 308 307 303 299
51 51 51 57 63 69 74 66 60 52 38 23 6 359 351 351 346 339 338 331 332 334 323 320 321 327 326 324 323 322 322 321 317 316 317 316 314 314 311 309 309 307 305
45 41 37 37 43 46 48 48 35 28 11 349 341 341 337 332 327 319 315 313 310 317 315 317 317 319 320 319 318 320 321 321 319 318 316 314 312 314 311 307 304 305 304
26 20 8 359 356 347 339 322 332 333 323 323 316 316 321 319 313 310 310 308 305 309 308 308 310 313 315 317 316 315 314 316 317 316 315 313 310 311 309 305 300 299 301
350 352 344 337 327 315 303 296 299 301 302 303 302 301 305 297 296 299 300 301 303 306 306 307 308 308 310 313 313 311 311 311 314 314 313 311 310 310 308 305 300 298 297
319 321 322 321 317 311 297 286 287 292 298 301 303 302 301 296 290 292 297 297 298 303 304 304 307 310 310 310 310 309 311 311 312 311 309 307 306 307 306 302 299 296 294
300 302 305 303 300 298 296 283 283 291 295 298 299 297 297 297 293 292 289 294 296 300 302 303 304 305 305 306 305 306 309 308 308 308 307 305 305 305 305 301 296 295 294
293 291 295 296 294 295 295 288 283 289 293 295 292 293 291 289 289 288 288 290 291 293 296 298 299 299 300 302 303 304 304 305 305 305 306 306 305 304 303 302 298 296 295
290 292 297 299 298 296 294 293 288 286 288 290 290 293 289 285 284 284 285 287 289 292 293 294 295 296 296 298 300 301 302 303 302 302 302 303 302 303 299 300 298 296 295
289 290 291 291 294 295 290 292 290 285 285 287 288 290 293 290 285 287 285 286 290 291 291 291 292 293 295 295 297 298 300 301 300 299 300 301 300 301 298 298 297 295 293
291 289 289 292 293 291 286 286 288 289 286 285 287 286 290 291 291 291 288 289 291 293 294 292 292 292 292 293 294 295 297 298 298 297 298 298 298 298 297 296 296 295 293
286 287 287 288 289 290 288 288 286 289 291 293 292 289 288 286 286 289 291 293 294 294 295 295 295 294 294 294 294 295 296 297 298 297 297 298 297 297 296 295 295 294 293
285 287 288 288 287 289 290 289 288 287 288 288 291 289 287 284 283 285 287 290 291 292 292 293 293 292 293 293 294 294 296 297 297 295 295 296 297 296 296 295 294 294 292
286 286 287 286 287 287 288 288 286 287 286 285 287 287 287 285 285 285 284 286 288 289 291 292 292 291 290 292 294 295 296 295 294 293 293 294 295 295 294 293 293 293 292
285 286 286 285 285 286 288 289 287 290 289 286 286 287 287 286 286 287 285 284 287 289 290 290 292 291 289 290 292 293 294 294 294 294 295 294 293 293 292 291 291 291 291
284 284 284 284 284 285 285 287 288 289 289 289 289 287 286 285 286 288 287 285 287 288 288 289 290 291 290 290 290 291 291 291 292 292 293 294 293 292 291 291 291 291 290
283 283 283 280 282 282 283 284 285 287 287 289 291 290 288 285 286 287 288 288 288 289 291 291 291 291 291 291 290 291 291 291 291 291 292 293 294 291 290 290 290 291 291
283 285 284 284 283 283 281 281 283 285 286 288 288 289 288 286 286 287 288 288 288 289 291 292 292 291 291 291 291 290 290 290 291 291 291 291 291 290 289 289 289 289 289
283 285 285 282 283 283 282 281 282 283 285 286 287 287 287 287 287 287 286 287 288 289 290 290 292 292 292 292 292 291 290 290 290 290 290 290 289 290 290 288 288 288 288
282 284 285 284 284 284 283 282 284 285 285 285 285 285 285 286 286 286 286 286 287 287 289 290 291 293 293 292 292 292 291 291 291 291 291 291 290 289 288 287 287 287 288
282 284 285 286 284 284 285 285 286 287 285 284 283 283 284 284 284 286 286 286 286 286 288 290 291 291 291 292 292 292 293 293 292 292 291 291 290 289 287 287 287 288 288
282 284 286 287 287 287 287 287 286 285 284 284 285 284 283 284 285 286 286 285 287 288 288 288 289 290 290 291 291 291 292 292 292 293 292 290 290 289 287 288 289 289 288
281 283 286 288 287 287 287 288 288 288 287 286 286 285 285 285 286 286 286 287 288 288 288 289 289 290 290 290 290 291 291 291 292 292 292 291 291 291 291 291 290 289 288
282 283 285 286 286 287 287 288 288 287 287 288 288 288 288 286 287 287 287 288 288 288 289 289 289 290 289 289 289 290 291 292 291 292 293 293 292 291 291 291 290 289 289
283 286 287 288 288 288 288 287 287 288 290 290 289 289 289 288 287 288 288 288 288 289 290 291 291 290 290 289 289 290 289 291 292 292 293 292 291 290 289 289 289 289 288
285 286 289 289 288 288 288 289 289 290 291 291 291 291 291 290 289 289 289 289 291 292 292 293 293 291 290 289 290 290 290 292 293 294 294 292 291 291 290 289 288 289 288